Location: Ash Swamp
(41.5170°N, 74.6157°W)
Time: 02:41:55
(UTC+00:00)

Cosmos 2278 - Pass Details

Date: 14 July 2020
Orbit: 838 x 854 km, 71.1° (Epoch: 14 August)

Event Time Altitude Azimuth Distance (km) Brightness Sun altitude
Rises 07:06:32 0° 340° (NNW) 3,431 7.4 -20.8°
Reaches altitude 10° 07:09:04 10° 345° (NNW) 2,492 6.7 -20.6°
Maximum altitude 07:14:41 54° 62° (ENE) 1,031 4.4 -20.1°
Drops below altitude 10° 07:20:15 10° 139° (SE) 2,476 6.0 -19.5°
Sets 07:22:44 0° 144° (SE) 3,407 6.7 -19.2°
